CW9098 Weather Reports


Display with metric or nautical units.
time (UTC)temp
F
wind
direction
speed
MPH
gust
MPH
rain 1hr
in
rain 24hr
in
rain mn
in
humidity
%
barometer
mb
20260508190122 62 275 11.0 19.0 0.00 0.00 0.00 47 1011.0
20260508185637 62 241 11.0 18.0 0.00 0.00 0.00 48 1011.1
20260508185144 62 173 9.0 15.0 0.00 0.00 0.00 47 1011.3
20260508184635 62 174 7.0 15.0 0.00 0.00 0.00 49 1011.1
20260508184121 61 218 9.0 17.0 0.00 0.00 0.00 49 1011.3
20260508183615 60 230 4.0 17.0 0.00 0.00 0.00 49 1011.4
20260508183128 60 224 8.0 22.0 0.00 0.00 0.00 48 1011.5
20260508182624 60 178 14.0 22.0 0.00 0.00 0.00 47 1011.5
20260508182157 60 245 12.0 22.0 0.00 0.00 0.00 47 1011.4
20260508181624 60 272 8.0 25.0 0.00 0.00 0.00 47 1011.4
20260508181141 61 257 16.0 25.0 0.00 0.00 0.00 44 1011.6
20260508180626 61 234 8.0 21.0 0.00 0.00 0.00 44 1011.5
20260508180139 62 233 12.0 21.0 0.00 0.00 0.00 43 1011.4
20260508175633 63 197 8.0 16.0 0.00 0.00 0.00 42 1011.4
20260508175120 63 245 2.0 18.0 0.00 0.00 0.00 44 1011.3
20260508174635 63 275 12.0 25.0 0.00 0.00 0.00 45 1011.5
20260508174145 63 257 16.0 25.0 0.00 0.00 0.00 41 1011.7
20260508173657 63 218 8.0 16.0 0.00 0.00 0.00 45 1011.8
20260508173122 62 206 9.0 20.0 0.00 0.00 0.00 44 1011.6
20260508172658 62 232 9.0 20.0 0.00 0.00 0.00 41 1011.7
20260508172123 63 227 11.0 18.0 0.00 0.00 0.00 44 1011.9
20260508171618 62 226 10.0 16.0 0.00 0.00 0.00 47 1011.8
20260508171131 61 243 11.0 21.0 0.00 0.00 0.00 45 1011.9
20260508170625 61 278 10.0 21.0 0.00 0.00 0.00 45 1011.8
20260508170120 61 247 13.0 25.0 0.00 0.00 0.00 46 1012.0
20260508165635 61 244 7.0 16.0 0.00 0.00 0.00 46 1012.0
20260508165120 60 270 8.0 18.0 0.00 0.00 0.00 45 1012.0
20260508164634 60 234 7.0 18.0 0.00 0.00 0.00 47 1012.1
20260508164130 61 232 3.0 17.0 0.00 0.00 0.00 45 1012.2
20260508163624 61 237 11.0 19.0 0.00 0.00 0.00 48 1012.1
20260508163117 60 266 12.0 20.0 0.00 0.00 0.00 47 1012.2
20260508162633 60 220 4.0 20.0 0.00 0.00 0.00 48 1012.3
20260508162140 60 241 7.0 18.0 0.00 0.00 0.00 49 1012.4
20260508161626 60 219 9.0 18.0 0.00 0.00 0.00 48 1012.4
20260508161120 60 306 6.0 16.0 0.00 0.00 0.00 50 1012.5
20260508160653 60 267 6.0 13.0 0.00 0.00 0.00 54 1012.7
20260508160120 58 168 7.0 11.0 0.00 0.00 0.00 51 1012.6
20260508155636 58 283 6.0 17.0 0.00 0.00 0.00 51 1012.7
20260508155144 59 309 12.0 17.0 0.00 0.00 0.00 50 1012.8
20260508154657 58 271 5.0 19.0 0.00 0.00 0.00 55 1012.8
20260508154126 58 262 10.0 18.0 0.00 0.00 0.00 53 1012.8
20260508153619 58 286 5.0 17.0 0.00 0.00 0.00 51 1012.9
20260508153134 57 285 7.0 17.0 0.00 0.00 0.00 56 1013.0
20260508152621 57 237 5.0 18.0 0.00 0.00 0.00 50 1012.9
20260508152135 58 284 12.0 18.0 0.00 0.00 0.00 50 1013.0
20260508151622 58 215 6.0 22.0 0.00 0.00 0.00 51 1012.8
20260508151118 58 266 13.0 25.0 0.00 0.00 0.00 50 1012.9
20260508150647 58 219 13.0 24.0 0.00 0.00 0.00 49 1012.9
20260508150121 58 230 14.0 24.0 0.00 0.00 0.00 49 1012.8
20260508145635 57 190 12.0 21.0 0.00 0.00 0.00 50 1012.8
20260508145128 57 232 12.0 19.0 0.00 0.00 0.00 51 1012.8
20260508144622 56 270 11.0 19.0 0.00 0.00 0.00 53 1012.9
20260508144138 55 195 8.0 19.0 0.00 0.00 0.00 54 1013.0
20260508143625 56 222 11.0 25.0 0.00 0.00 0.00 51 1013.1
20260508143119 56 229 16.0 25.0 0.00 0.00 0.00 49 1013.1
20260508142634 56 251 11.0 23.0 0.00 0.00 0.00 50 1013.0
20260508142120 56 216 14.0 23.0 0.00 0.00 0.00 49 1012.9
20260508141634 56 235 8.0 21.0 0.00 0.00 0.00 51 1012.9
20260508141119 55 274 11.0 19.0 0.00 0.00 0.00 51 1012.9
20260508140635 55 237 13.0 19.0 0.00 0.00 0.00 52 1013.1
20260508140142 55 222 8.0 18.0 0.00 0.00 0.00 56 1013.2
20260508135658 55 179 6.0 16.0 0.00 0.00 0.00 56 1013.0
20260508135124 55 173 9.0 16.0 0.00 0.00 0.00 58 1013.0
20260508134638 55 169 9.0 17.0 0.00 0.00 0.00 59 1013.0
20260508134123 54 169 12.0 17.0 0.00 0.00 0.00 60 1013.1
20260508133656 54 162 9.0 16.0 0.00 0.00 0.00 60 1012.9
20260508133122 53 172 11.0 17.0 0.00 0.00 0.00 62 1013.0
20260508132617 52 196 12.0 21.0 0.00 0.00 0.00 63 1013.2
20260508132125 52 174 13.0 22.0 0.00 0.00 0.00 63 1013.2
20260508131619 51 193 11.0 17.0 0.00 0.00 0.00 65 1013.2
20260508131156 51 195 9.0 18.0 0.00 0.00 0.00 65 1013.3
20260508130628 50 176 9.0 18.0 0.00 0.00 0.00 64 1013.4
20260508130123 50 169 10.0 15.0 0.00 0.00 0.00 66 1013.4
20260508125619 49 203 9.0 15.0 0.00 0.00 0.00 65 1013.5
20260508125132 49 185 8.0 16.0 0.00 0.00 0.00 66 1013.5
20260508124619 48 221 7.0 11.0 0.00 0.00 0.00 67 1013.6
20260508124156 48 212 5.0 10.0 0.00 0.00 0.00 68 1013.6
20260508123621 47 215 6.0 11.0 0.00 0.00 0.00 70 1013.5
20260508123135 46 193 7.0 11.0 0.00 0.00 0.00 71 1013.5
20260508122622 46 187 4.0 10.0 0.00 0.00 0.00 72 1013.5
20260508122137 45 225 5.0 11.0 0.00 0.00 0.00 74 1013.4
20260508121624 45 201 7.0 11.0 0.00 0.00 0.00 78 1013.4
20260508121120 44 178 4.0 8.0 0.00 0.00 0.00 80 1013.5
20260508120633 43 205 2.0 5.0 0.00 0.00 0.00 83 1013.6
20260508120140 42 206 2.0 7.0 0.00 0.00 0.00 84 1013.7
20260508115655 41 180 4.0 7.0 0.00 0.00 0.00 85 1013.6
20260508115120 41 232 2.0 5.0 0.00 0.00 0.00 86 1013.6
20260508114651 40 232 3.0 4.0 0.00 0.00 0.00 86 1013.5
20260508114125 39 220 1.0 7.0 0.00 0.00 0.00 87 1013.4
20260508113638 39 240 3.0 7.0 0.00 0.00 0.00 87 1013.5
20260508113145 38 206 1.0 5.0 0.00 0.00 0.00 87 1013.5
20260508112639 38 205 2.0 5.0 0.00 0.00 0.00 88 1013.5
20260508112133 38 195 1.0 5.0 0.00 0.00 0.00 88 1013.5
20260508111618 37 201 1.0 4.0 0.00 0.00 0.00 88 1013.4
20260508111135 37 182 0.0 3.0 0.00 0.00 0.00 88 1013.3
20260508110640 36 218 1.0 2.0 0.00 0.00 0.00 88 1013.3
20260508110125 36 218 0.0 0.0 0.00 0.00 0.00 88 1013.3
20260508105620 35 220 0.0 0.0 0.00 0.00 0.00 88 1013.3
20260508105134 35 220 0.0 0.0 0.00 0.00 0.00 88 1013.2
20260508104622 35 219 0.0 0.0 0.00 0.00 0.00 88 1013.1
20260508104119 35 220 0.0 2.0 0.00 0.00 0.00 88 1013.1
20260508103633 35 220 0.0 2.0 0.00 0.00 0.00 88 1013.1
20260508103140 34 219 0.0 3.0 0.00 0.00 0.00 88 1013.1
20260508102636 34 221 0.0 4.0 0.00 0.00 0.00 88 1013.1
20260508102144 33 216 2.0 4.0 0.00 0.00 0.00 88 1013.1
20260508101618 33 218 1.0 2.0 0.00 0.00 0.00 88 1013.0
20260508101133 33 216 0.0 3.0 0.00 0.00 0.00 88 1013.0
20260508100620 33 217 1.0 3.0 0.00 0.00 0.00 88 1012.9
20260508100151 33 217 1.0 3.0 0.00 0.00 0.00 88 1012.9
20260508095646 33 220 0.0 2.0 0.00 0.00 0.00 88 1012.8
20260508095159 32 220 0.0 2.0 0.00 0.00 0.00 87 1012.8
20260508094626 32 220 1.0 2.0 0.00 0.00 0.00 87 1012.9
20260508094121 32 220 0.0 0.0 0.00 0.00 0.00 87 1013.0
20260508093634 32 220 0.0 0.0 0.00 0.00 0.00 87 1012.9
20260508093122 33 220 0.0 2.0 0.00 0.00 0.00 87 1012.9
20260508092638 33 220 1.0 2.0 0.00 0.00 0.00 87 1013.0
20260508092145 33 220 1.0 2.0 0.00 0.00 0.00 87 1012.9
20260508091659 33 220 0.0 2.0 0.00 0.00 0.00 87 1012.8
20260508091125 33 221 0.0 2.0 0.00 0.00 0.00 87 1012.8
20260508090620 33 221 1.0 3.0 0.00 0.00 0.00 87 1012.8
20260508090135 33 222 2.0 3.0 0.00 0.00 0.00 87 1012.9
20260508085624 33 222 1.0 4.0 0.00 0.00 0.00 87 1013.0
20260508085158 33 224 3.0 4.0 0.00 0.00 0.00 87 1012.9
20260508084624 33 211 2.0 4.0 0.00 0.00 0.00 87 1012.8
20260508084155 33 224 2.0 4.0 0.00 0.00 0.00 87 1012.8
20260508083621 33 225 1.0 3.0 0.00 0.00 0.00 86 1012.7
20260508083137 33 201 0.0 0.0 0.00 0.00 0.00 86 1012.6
20260508082626 33 202 0.0 2.0 0.00 0.00 0.00 86 1012.7
20260508082119 34 202 0.0 3.0 0.00 0.00 0.00 86 1012.8
20260508081634 34 202 2.0 3.0 0.00 0.00 0.00 86 1012.7
20260508081123 34 204 1.0 2.0 0.00 0.00 0.00 86 1012.6
20260508080637 34 205 1.0 2.0 0.00 0.00 0.00 86 1012.7
20260508080124 34 205 1.0 3.0 0.00 0.00 0.00 85 1012.7
20260508075636 34 205 2.0 3.0 0.00 0.00 0.00 85 1012.7
20260508075119 35 210 0.0 2.0 0.00 0.00 0.00 85 1012.8
20260508074633 35 210 1.0 2.0 0.00 0.00 0.00 85 1012.8
20260508074122 35 211 1.0 3.0 0.00 0.00 0.00 84 1012.7
20260508073635 35 212 1.0 3.0 0.00 0.00 0.00 84 1012.7
20260508073122 36 214 2.0 2.0 0.00 0.00 0.00 84 1012.6
20260508072635 36 214 0.0 2.0 0.00 0.00 0.00 84 1012.4
20260508072121 36 212 1.0 2.0 0.00 0.00 0.00 84 1012.5
20260508071636 37 213 0.0 1.0 0.00 0.00 0.00 84 1012.6
20260508071124 37 213 0.0 1.0 0.00 0.00 0.00 84 1012.6
20260508070618 37 213 0.0 2.0 0.00 0.00 0.00 83 1012.6
20260508070134 37 213 1.0 2.0 0.00 0.00 0.00 83 1012.6
20260508065621 37 214 0.0 2.0 0.00 0.00 0.00 83 1012.8
20260508065135 37 225 1.0 3.0 0.00 0.00 0.00 82 1012.8
20260508064623 38 238 1.0 3.0 0.00 0.00 0.00 82 1012.9
20260508064119 38 205 1.0 3.0 0.00 0.00 0.00 82 1012.9
20260508063634 38 204 0.0 2.0 0.00 0.00 0.00 82 1012.9
20260508063123 38 232 0.0 2.0 0.00 0.00 0.00 82 1012.9
20260508062656 38 245 1.0 2.0 0.00 0.00 0.00 81 1012.9
20260508061643 39 207 0.0 5.0 0.00 0.00 0.00 80 1012.9
20260508061137 39 220 0.0 3.0 0.00 0.00 0.00 79 1012.9
20260508060624 40 228 0.0 2.0 0.00 0.00 0.00 78 1012.8
20260508060140 40 230 0.0 5.0 0.00 0.00 0.00 77 1012.9
20260508055636 41 232 1.0 5.0 0.00 0.00 0.00 76 1012.9
20260508055123 41 279 0.0 3.0 0.00 0.00 0.00 74 1012.8
20260508054617 42 264 0.0 1.0 0.00 0.00 0.00 74 1012.9
20260508054134 42 264 0.0 4.0 0.00 0.00 0.00 74 1013.0
20260508053621 42 264 2.0 4.0 0.00 0.00 0.00 73 1013.0
20260508053136 42 265 0.0 0.0 0.00 0.00 0.00 73 1013.0
20260508052625 42 266 0.0 0.0 0.00 0.00 0.00 73 1013.1
20260508052118 43 185 0.0 0.0 0.00 0.00 0.00 73 1013.0
20260508051633 43 185 0.0 0.0 0.00 0.00 0.00 73 1012.9
20260508051121 43 186 0.0 0.0 0.00 0.00 0.00 73 1012.9
20260508050634 43 251 0.0 0.0 0.00 0.00 0.00 72 1012.9
20260508050121 44 253 0.0 0.0 0.00 0.00 0.00 71 1012.9
20260508045619 44 251 0.0 0.0 0.00 0.00 0.00 70 1012.8
20260508045134 45 251 0.0 0.0 0.00 0.00 0.00 69 1012.8
20260508044642 45 278 0.0 0.0 0.00 0.00 0.00 67 1012.8
20260508044137 46 278 0.0 0.0 0.00 0.00 0.00 66 1012.9
20260508043641 47 297 0.0 0.0 0.00 0.00 0.00 65 1012.8
20260508043135 47 297 0.0 9.0 0.00 0.00 0.00 64 1012.8
20260508042621 47 296 4.0 11.0 0.00 0.00 0.00 64 1012.6
20260508042156 46 301 2.0 8.0 0.00 0.00 0.00 64 1012.7
20260508041623 47 318 0.0 0.0 0.00 0.00 0.00 64 1012.6
20260508041136 47 14 0.0 0.0 0.00 0.00 0.00 64 1012.6
20260508040623 47 14 0.0 9.0 0.00 0.00 0.00 63 1012.5
20260508040117 48 14 0.0 9.0 0.00 0.00 0.00 62 1012.5
20260508035624 48 310 1.0 10.0 0.00 0.00 0.00 62 1012.4
20260508035118 48 326 3.0 10.0 0.00 0.00 0.00 62 1012.4
20260508034632 48 311 1.0 5.0 0.00 0.00 0.00 63 1012.3
20260508034122 49 312 0.0 11.0 0.00 0.00 0.00 62 1012.3
20260508033635 49 315 7.0 11.0 0.00 0.00 0.00 61 1012.4
20260508033121 49 44 0.0 11.0 0.00 0.00 0.00 61 1012.3
20260508032635 49 309 2.0 11.0 0.00 0.00 0.00 62 1012.2
20260508032121 49 331 3.0 8.0 0.00 0.00 0.00 62 1012.2
20260508031635 49 10 1.0 10.0 0.00 0.00 0.00 62 1012.2
20260508031125 49 314 4.0 10.0 0.00 0.00 0.00 61 1012.3
20260508030618 50 47 1.0 3.0 0.00 0.00 0.00 59 1012.2
20260508030132 50 356 1.0 9.0 0.00 0.00 0.00 58 1012.1
20260508025640 51 343 3.0 20.0 0.00 0.00 0.00 57 1012.0
20260508025125 51 303 9.0 20.0 0.00 0.00 0.00 56 1012.0
20260508024619 51 331 9.0 18.0 0.00 0.00 0.00 56 1012.0
20260508024133 52 303 7.0 13.0 0.00 0.00 0.00 54 1012.0
20260508023620 52 19 5.0 14.0 0.00 0.00 0.00 52 1011.8
20260508023115 52 320 9.0 14.0 0.00 0.00 0.00 51 1011.6
20260508022627 53 289 3.0 13.0 0.00 0.00 0.00 50 1011.5
20260508022120 52 295 6.0 25.0 0.00 0.00 0.00 50 1011.5
20260508021633 52 311 10.0 25.0 0.00 0.00 0.00 51 1011.3
20260508021120 52 266 1.0 6.0 0.00 0.00 0.00 52 1011.2
20260508020634 52 272 1.0 6.0 0.00 0.00 0.00 51 1011.1
20260508020128 52 276 1.0 8.0 0.00 0.00 0.00 52 1011.1
20260508015645 52 305 4.0 8.0 0.00 0.00 0.00 52 1011.0
20260508015118 52 228 1.0 10.0 0.00 0.00 0.00 54 1011.0
20260508014632 52 266 0.0 12.0 0.00 0.00 0.00 53 1010.9
20260508014119 50 282 5.0 12.0 0.00 0.00 0.00 57 1010.7
20260508013633 48 261 3.0 9.0 0.00 0.00 0.00 63 1010.7
20260508013120 48 230 3.0 8.0 0.00 0.00 0.00 65 1010.7
20260508012636 47 281 0.0 3.0 0.00 0.00 0.00 67 1010.6
20260508012124 47 280 1.0 5.0 0.00 0.00 0.00 69 1010.5
20260508011619 48 257 2.0 5.0 0.00 0.00 0.00 70 1010.5
20260508011156 48 256 0.0 0.0 0.00 0.00 0.00 67 1010.4
20260508010641 49 256 0.0 0.0 0.00 0.00 0.00 64 1010.2
20260508010135 49 258 0.0 0.0 0.00 0.00 0.00 62 1010.2
20260508005623 50 257 0.0 0.0 0.00 0.00 0.00 62 1010.0
20260508005117 50 257 0.0 0.0 0.00 0.00 0.00 59 1009.9
20260508004632 51 243 0.0 0.0 0.00 0.00 0.00 57 1009.9
20260508004119 52 237 0.0 3.0 0.00 0.00 0.00 56 1009.9
20260508003650 53 237 0.0 3.0 0.00 0.00 0.00 52 1009.8
20260508003123 53 237 0.0 2.0 0.00 0.00 0.00 51 1009.8
20260508002638 53 238 0.0 0.0 0.00 0.00 0.00 52 1009.6
20260508002125 54 238 0.0 0.0 0.00 0.00 0.00 49 1009.6
20260508001619 54 238 0.0 0.0 0.00 0.00 0.00 49 1009.5
20260508001135 55 238 0.0 3.0 0.00 0.00 0.00 48 1009.5
20260508000628 55 239 0.0 7.0 0.00 0.00 0.00 48 1009.5
20260508000122 56 230 3.0 7.0 0.00 0.00 0.00 47 1009.4
20260507235638 56 228 3.0 5.0 0.00 0.00 0.00 48 1009.3
20260507235124 56 239 1.0 3.0 0.00 0.00 0.00 48 1009.3
20260507234658 56 241 0.0 7.0 0.00 0.00 0.00 47 1009.2
20260507234144 57 241 2.0 8.0 0.00 0.00 0.00 46 1009.2
20260507233637 57 252 4.0 9.0 0.00 0.00 0.00 46 1009.1
20260507233144 57 277 1.0 13.0 0.00 0.00 0.00 46 1009.2
20260507232639 57 251 5.0 13.0 0.00 0.00 0.00 45 1009.2
20260507232146 57 262 3.0 8.0 0.00 0.00 0.00 46 1009.2
20260507231620 58 247 2.0 10.0 0.00 0.00 0.00 44 1009.0
20260507231134 59 262 3.0 10.0 0.00 0.00 0.00 44 1009.0
20260507230622 59 281 6.0 13.0 0.00 0.00 0.00 43 1008.9
20260507230115 59 224 8.0 14.0 0.00 0.00 0.00 44 1008.9
20260507225632 59 297 5.0 14.0 0.00 0.00 0.00 44 1008.9
20260507225119 59 295 5.0 17.0 0.00 0.00 0.00 44 1008.9
20260507224629 59 283 8.0 16.0 0.00 0.00 0.00 44 1008.9
20260507224122 58 276 7.0 11.0 0.00 0.00 0.00 45 1008.8
20260507223635 59 305 4.0 11.0 0.00 0.00 0.00 48 1008.7
20260507223121 59 278 1.0 12.0 0.00 0.00 0.00 46 1008.6
20260507222658 59 290 4.0 12.0 0.00 0.00 0.00 46 1008.6
20260507222144 59 278 5.0 9.0 0.00 0.00 0.00 44 1008.6
20260507221658 59 263 1.0 15.0 0.00 0.00 0.00 45 1008.6
20260507221124 60 270 4.0 21.0 0.00 0.00 0.00 44 1008.6
20260507220638 60 210 11.0 20.0 0.00 0.01 0.00 42 1008.5
20260507220124 59 228 8.0 16.0 0.00 0.01 0.00 44 1008.5
20260507215618 59 249 6.0 13.0 0.00 0.01 0.00 45 1008.5
20260507215132 59 259 8.0 15.0 0.00 0.01 0.00 43 1008.5
20260507214643 59 232 7.0 15.0 0.00 0.01 0.00 44 1008.6
20260507214138 59 240 8.0 12.0 0.00 0.01 0.00 44 1008.6
20260507213624 59 262 3.0 11.0 0.00 0.01 0.00 45 1008.6
20260507213158 59 268 6.0 11.0 0.00 0.01 0.00 45 1008.6
20260507212640 59 318 1.0 8.0 0.00 0.01 0.00 45 1008.6
20260507212132 59 242 2.0 10.0 0.00 0.01 0.00 44 1008.4
20260507211647 59 257 4.0 11.0 0.00 0.01 0.00 45 1008.5
20260507211123 59 291 6.0 14.0 0.00 0.01 0.00 44 1008.5
20260507210637 60 311 7.0 14.0 0.00 0.01 0.00 47 1008.4
20260507210125 60 247 6.0 9.0 0.00 0.01 0.00 42 1008.4
20260507205639 59 10 0.0 11.0 0.00 0.01 0.00 45 1008.4
20260507205125 59 237 7.0 13.0 0.00 0.01 0.00 44 1008.5
20260507204620 60 311 8.0 13.0 0.00 0.01 0.00 42 1008.3
20260507204137 60 247 4.0 15.0 0.00 0.01 0.00 43 1008.5
20260507203624 60 270 7.0 17.0 0.00 0.01 0.00 42 1008.6
20260507203138 61 272 7.0 17.0 0.00 0.01 0.00 41 1008.6
20260507202625 60 226 6.0 13.0 0.00 0.01 0.00 43 1008.6
20260507202138 60 300 5.0 13.0 0.00 0.01 0.00 44 1008.6
20260507201625 60 258 8.0 12.0 0.00 0.01 0.00 43 1008.8
20260507201121 60 280 5.0 17.0 0.00 0.01 0.00 45 1008.9
20260507200636 60 270 9.0 17.0 0.00 0.01 0.00 41 1008.8
20260507200143 60 280 7.0 11.0 0.00 0.01 0.00 42 1008.9
20260507195658 60 285 8.0 12.0 0.00 0.01 0.00 46 1008.8
20260507195123 60 295 8.0 12.0 0.00 0.01 0.00 42 1008.8
20260507194637 60 297 7.0 12.0 0.00 0.01 0.00 43 1008.9
20260507194125 60 253 5.0 10.0 0.00 0.01 0.00 44 1008.9
20260507193619 60 265 6.0 13.0 0.00 0.01 0.00 42 1009.0
20260507193130 61 310 6.0 19.0 0.00 0.01 0.00 39 1009.1
20260507192624 63 230 13.0 19.0 0.00 0.01 0.00 38 1009.0
20260507192116 62 218 4.0 14.0 0.00 0.01 0.00 41 1009.0
20260507191629 62 213 5.0 14.0 0.00 0.01 0.00 42 1009.1
20260507191123 61 303 5.0 16.0 0.00 0.01 0.00 45 1009.1
20260507190616 61 257 9.0 16.0 0.00 0.01 0.00 44 1009.2